Location: Kaarina
(60.4167°N, 22.4167°E)
Time: 16:10:09
(UTC+03:00)

Iridium 96 - Pass Details

Date: 24 August 2019
Orbit: 275 x 513 km, 86.4° (Epoch: 23 September)

Event Time Altitude Azimuth Distance (km) Brightness Sun altitude
Exits shadow 23:28:14 34° 164° (SSE) 631 4.6 -14.4°
Maximum altitude 23:29:19 66° 93° (E) 420 4.0 -14.5°
Drops below altitude 10° 23:32:28 10° 10° (N) 1,475 7.7 -14.7°
Sets 23:34:36 0° 8° (N) 2,391 9.0 -14.8°
